GW1281 Weather Reports


time (UTC)temp
C
wind
direction
speed
KPH
gust
KPH
rain 1hr
cm
rain 24hr
cm
rain mn
cm
humidity
%
barometer
mb
20260504205017 22 182 6.4 29.0 0.00 0.00 0.00 33 1010.1
20260504204535 22 299 6.4 24.1 0.00 0.00 0.00 32 1010.0
20260504204018 22 191 11.3 24.1 0.00 0.00 0.00 31 1010.0
20260504203518 22 212 12.9 22.5 0.00 0.00 0.00 30 1010.2
20260504203036 22 322 3.2 19.3 0.00 0.00 0.00 33 1010.2
20260504202518 22 301 3.2 24.1 0.00 0.00 0.00 33 1010.2
20260504202018 22 195 8.0 24.1 0.00 0.00 0.00 32 1010.3
20260504201534 22 180 11.3 20.9 0.00 0.00 0.00 31 1010.3
20260504201017 22 184 4.8 14.5 0.00 0.00 0.00 32 1010.2
20260504200517 22 201 4.8 25.7 0.00 0.00 0.00 32 1010.3
20260504200035 22 202 11.3 25.7 0.00 0.00 0.00 31 1010.2
20260504195517 22 223 8.0 19.3 0.00 0.00 0.00 30 1010.3
20260504195018 23 290 4.8 17.7 0.00 0.00 0.00 32 1010.3
20260504194540 22 259 6.4 16.1 0.00 0.00 0.00 31 1010.4
20260504194018 22 309 3.2 20.9 0.00 0.00 0.00 33 1010.4
20260504193516 22 205 6.4 20.9 0.00 0.00 0.00 32 1010.4
20260504193036 22 219 6.4 17.7 0.00 0.00 0.00 32 1010.4
20260504192518 22 246 6.4 19.3 0.00 0.00 0.00 32 1010.4
20260504192020 22 198 6.4 20.9 0.00 0.00 0.00 31 1010.6
20260504191535 22 205 11.3 20.9 0.00 0.00 0.00 31 1010.6
20260504191019 22 259 6.4 24.1 0.00 0.00 0.00 33 1010.6
20260504190518 22 265 8.0 24.1 0.00 0.00 0.00 31 1010.7
20260504190037 22 202 9.7 24.1 0.00 0.00 0.00 32 1011.1
20260504185517 22 247 9.7 24.1 0.00 0.00 0.00 32 1010.9
20260504185018 22 167 6.4 19.3 0.00 0.00 0.00 33 1010.9
20260504184534 21 202 8.0 24.1 0.00 0.00 0.00 33 1011.2
20260504184019 21 335 12.9 24.1 0.00 0.00 0.00 32 1011.2
20260504183519 22 319 8.0 24.1 0.00 0.00 0.00 33 1011.3
20260504183033 22 219 8.0 24.1 0.00 0.00 0.00 31 1011.3
20260504182519 22 269 4.8 19.3 0.00 0.00 0.00 35 1011.6
20260504182018 21 213 6.4 19.3 0.00 0.00 0.00 32 1011.5
20260504181536 21 202 6.4 22.5 0.00 0.00 0.00 33 1011.4
20260504181021 21 314 11.3 22.5 0.00 0.00 0.00 31 1011.5
20260504180519 21 293 6.4 20.9 0.00 0.00 0.00 32 1011.6
20260504180035 21 200 8.0 20.9 0.00 0.00 0.00 34 1011.7
20260504175518 21 316 9.7 20.9 0.00 0.00 0.00 33 1011.9
20260504175022 21 232 8.0 19.3 0.00 0.00 0.00 32 1011.9
20260504174535 21 252 9.7 19.3 0.00 0.00 0.00 33 1011.9
20260504174018 21 303 8.0 20.9 0.00 0.00 0.00 34 1012.0
20260504173517 21 325 9.7 22.5 0.00 0.00 0.00 32 1012.1
20260504173034 21 343 9.7 24.1 0.00 0.00 0.00 34 1012.2
20260504172517 21 222 6.4 29.0 0.00 0.00 0.00 34 1012.2
20260504172017 20 0 9.7 29.0 0.00 0.00 0.00 33 1012.3
20260504171545 20 272 14.5 27.4 0.00 0.00 0.00 34 1012.4
20260504171018 20 191 6.4 19.3 0.00 0.00 0.00 34 1012.4
20260504170518 20 308 9.7 19.3 0.00 0.00 0.00 34 1012.6
20260504151017 18 262 11.3 22.5 0.00 0.00 0.00 37 1013.8
20260504150518 18 317 6.4 22.5 0.00 0.00 0.00 38 1013.9
20260504141017 16 209 4.8 16.1 0.00 0.00 0.00 49 1014.0
20260504140520 16 234 4.8 16.1 0.00 0.00 0.00 49 1014.0
20260504130517 14 207 8.0 20.9 0.00 0.00 0.00 60 1014.2
20260504110517 9 215 6.4 17.7 0.00 0.00 0.00 71 1014.9
20260504100520 8 238 6.4 17.7 0.00 0.00 0.00 64 1014.9
20260504081541 10 292 1.6 12.9 0.00 0.00 0.00 51 1014.9
20260504081018 10 304 3.2 12.9 0.00 0.00 0.00 51 1014.9
20260504080517 10 304 3.2 9.7 0.00 0.00 0.00 50 1015.0
20260504050520 11 0 0.0 0.0 0.00 0.00 0.00 43 1014.9
20260504045517 11 0 0.0 4.8 0.00 0.00 0.00 42 1014.9
20260504045016 11 0 0.0 6.4 0.00 0.00 0.00 42 1014.8
20260504044534 11 306 1.6 6.4 0.00 0.00 0.00 42 1014.7
20260504044018 11 289 1.6 11.3 0.00 0.00 0.00 42 1014.7
20260504043518 11 286 3.2 11.3 0.00 0.00 0.00 42 1014.7
20260504043044 11 257 3.2 8.0 0.00 0.00 0.00 42 1014.7
20260504042517 11 0 1.6 9.7 0.00 0.00 0.00 41 1014.7
20260504042018 11 287 3.2 11.3 0.00 0.00 0.00 41 1014.6
20260504041541 11 294 3.2 11.3 0.00 0.00 0.00 41 1014.5
20260504041017 11 0 3.2 11.3 0.00 0.00 0.00 41 1014.4
20260504040517 11 0 1.6 11.3 0.00 0.00 0.00 41 1014.3
20260504040042 11 288 3.2 9.7 0.00 0.00 0.00 41 1014.3
20260504035518 11 220 1.6 14.5 0.00 0.00 0.00 41 1014.4
20260504035016 12 314 3.2 14.5 0.00 0.00 0.00 41 1014.4
20260504034536 12 225 3.2 17.7 0.00 0.00 0.00 40 1014.3
20260504034020 12 274 1.6 17.7 0.00 0.00 0.00 40 1014.3
20260504033517 12 247 3.2 12.9 0.00 0.00 0.00 40 1014.3
20260504033037 12 279 3.2 12.9 0.00 0.00 0.00 40 1014.3
20260504032518 12 279 4.8 12.9 0.00 0.00 0.00 40 1014.2
20260504032024 12 302 3.2 11.3 0.00 0.00 0.00 40 1014.2
20260504031545 12 319 3.2 11.3 0.00 0.00 0.00 40 1014.3
20260504031020 12 252 3.2 16.1 0.00 0.00 0.00 40 1014.2
20260504030520 12 296 1.6 16.1 0.00 0.00 0.00 40 1014.1
20260504030044 12 272 3.2 12.9 0.00 0.00 0.00 40 1014.2
20260504025517 12 319 1.6 6.4 0.00 0.00 0.00 40 1014.1
20260504025020 12 177 1.6 11.3 0.00 0.00 0.00 40 1014.2
20260504024539 12 292 1.6 11.3 0.00 0.00 0.00 40 1014.2
20260504024022 12 236 1.6 11.3 0.00 0.00 0.00 40 1014.2
20260504023520 12 337 3.2 9.7 0.00 0.00 0.00 40 1014.2
20260504023037 12 289 3.2 9.7 0.00 0.00 0.00 40 1014.3
20260504022521 12 0 3.2 9.7 0.00 0.00 0.00 40 1014.2
20260504022020 12 281 1.6 9.7 0.00 0.00 0.00 40 1014.2
20260504021535 12 248 1.6 9.7 0.00 0.00 0.00 40 1014.2
20260504021020 12 331 3.2 9.7 0.00 0.00 0.00 39 1014.3
20260504020519 12 0 1.6 6.4 0.00 0.00 0.00 39 1014.2
20260504020034 12 250 1.6 6.4 0.00 0.00 0.00 39 1014.1
20260504015521 12 265 0.0 4.8 0.00 0.00 0.00 39 1014.1
20260504015024 12 219 1.6 4.8 0.00 0.00 0.00 38 1014.0
20260504014546 12 0 1.6 4.8 0.00 0.00 0.00 38 1014.0
20260504014021 12 296 1.6 6.4 0.00 0.00 0.00 38 1014.1
20260504013518 12 267 1.6 9.7 0.00 0.00 0.00 38 1014.0
20260504013051 12 267 1.6 9.7 0.00 0.00 0.00 37 1013.9
20260504012522 12 277 0.0 6.4 0.00 0.00 0.00 37 1013.9
20260504012017 12 0 0.0 6.4 0.00 0.00 0.00 37 1013.9
20260504011539 13 282 3.2 6.4 0.00 0.00 0.00 37 1013.8
20260504011024 13 0 1.6 6.4 0.00 0.00 0.00 37 1013.7
20260504010520 13 246 1.6 8.0 0.00 0.00 0.00 37 1013.7
20260504010039 13 282 1.6 9.7 0.00 0.00 0.00 37 1013.6
20260504005521 13 295 1.6 9.7 0.00 0.00 0.00 36 1013.6
20260504005023 13 301 1.6 4.8 0.00 0.00 0.00 36 1013.6
20260504004535 13 0 0.0 4.8 0.00 0.00 0.00 36 1013.5
20260504004020 13 0 0.0 4.8 0.00 0.00 0.00 36 1013.4
20260504003520 13 0 1.6 4.8 0.00 0.00 0.00 35 1013.3
20260504003042 13 294 0.0 8.0 0.00 0.00 0.00 35 1013.2
20260504002520 13 0 1.6 8.0 0.00 0.00 0.00 34 1013.2
20260504002020 14 0 1.6 6.4 0.00 0.00 0.00 34 1013.2
20260504001609 14 0 0.0 6.4 0.00 0.00 0.00 33 1013.1
20260504001017 14 284 1.6 16.1 0.00 0.00 0.00 33 1013.0
20260504000517 14 276 3.2 16.1 0.00 0.00 0.00 33 1013.0
20260504000037 15 292 4.8 16.1 0.00 0.00 0.00 32 1013.0
20260503235517 15 295 6.4 19.3 0.00 0.00 0.00 32 1012.9
20260503235018 15 302 11.3 19.3 0.00 0.00 0.00 31 1012.8
20260503234535 15 325 8.0 17.7 0.00 0.00 0.00 32 1012.7
20260503234017 15 302 8.0 16.1 0.00 0.00 0.00 32 1012.7
20260503233517 15 284 6.4 19.3 0.00 0.00 0.00 31 1012.8
20260503233039 15 304 6.4 19.3 0.00 0.00 0.00 31 1012.6
20260503232516 15 282 8.0 19.3 0.00 0.00 0.00 31 1012.7
20260503232016 15 322 9.7 19.3 0.00 0.00 0.00 30 1012.6
20260503231534 15 300 6.4 19.3 0.00 0.00 0.00 31 1012.6
20260503231018 15 296 9.7 24.1 0.00 0.00 0.00 30 1012.6
20260503230519 15 320 11.3 24.1 0.00 0.00 0.00 30 1012.6
20260503230035 15 332 12.9 24.1 0.00 0.00 0.00 30 1012.5
20260503225520 15 327 11.3 22.5 0.00 0.00 0.00 30 1012.5
20260503225020 15 266 11.3 25.7 0.00 0.00 0.00 29 1012.5
20260503224541 15 318 14.5 25.7 0.00 0.00 0.00 29 1012.4
20260503224018 15 312 9.7 20.9 0.00 0.00 0.00 28 1012.4
20260503223517 15 285 12.9 22.5 0.00 0.00 0.00 29 1012.5
20260503223040 16 292 11.3 22.5 0.00 0.00 0.00 28 1012.5
20260503222518 16 324 16.1 27.4 0.00 0.00 0.00 28 1012.4
20260503222016 16 262 12.9 27.4 0.00 0.00 0.00 28 1012.5
20260503221537 16 332 12.9 22.5 0.00 0.00 0.00 28 1012.5
20260503221017 16 340 12.9 29.0 0.00 0.00 0.00 28 1012.4
20260503220519 16 328 17.7 32.2 0.00 0.00 0.00 28 1012.4
20260503220035 16 339 19.3 32.2 0.00 0.00 0.00 27 1012.4
20260503215518 16 352 12.9 22.5 0.00 0.00 0.00 28 1012.4
20260503215017 16 317 11.3 24.1 0.00 0.00 0.00 28 1012.4
20260503214534 16 352 8.0 24.1 0.00 0.00 0.00 29 1012.4
20260503214017 16 331 16.1 24.1 0.00 0.00 0.00 28 1012.3
20260503213517 15 318 12.9 27.4 0.00 0.00 0.00 28 1012.4
20260503213043 15 331 14.5 27.4 0.00 0.00 0.00 28 1012.3
20260503212516 15 308 11.3 25.7 0.00 0.00 0.00 28 1012.2
20260503212017 15 298 16.1 33.8 0.00 0.00 0.00 28 1012.3
20260503211539 15 327 19.3 33.8 0.00 0.00 0.00 27 1012.4
20260503211021 15 327 17.7 33.8 0.00 0.00 0.00 27 1012.3
20260503210521 15 321 11.3 33.8 0.00 0.00 0.00 28 1012.4
20260503210036 15 312 12.9 33.8 0.00 0.00 0.00 29 1012.5
20260503205521 15 319 12.9 33.8 0.00 0.00 0.00 28 1012.4